Location: *
(58.8333°N, 25.3500°E)
Time: 23:45:02
(UTC+00:00)

Daily predictions for brighter satellites

Satellite Brightness Start Highest point End
(mag) Time Altitude Azimuth Time Altitude Azimuth Time Altitude Azimuth
Cosmos 2369 Rocket 4.0 20:02:55 10° NW 20:07:56 29° NNE 20:12:55 10° E
Cosmos 2084 3.8 20:06:14 10° WSW 20:10:42 76° NNW 20:15:02 10° ENE
ASTEX 1 3.7 20:08:22 10° NNE 20:13:18 55° E 20:18:13 10° S
Cosmos 1570 Rocket 4.3 20:11:10 10° NNW 20:16:24 64° NE 20:21:37 10° SE
Cosmos 2279 Rocket 4.4 20:11:38 10° SSE 20:17:33 50° E 20:23:32 10° NNE
Lacrosse 5 1.9 20:12:41 10° W 20:17:44 65° SSW 20:22:45 10° ESE
NOSS 3-1 (C) 4.0 20:15:15 10° S 20:20:32 37° SE 20:26:36 10° ENE
ISS -2.3 20:18:58 10° SSW 20:21:22 19° SSE 20:23:47 10° ESE
Landsat 4 3.8 20:18:13 10° NNE 20:21:55 58° ESE 20:25:35 10° S
Cosmos 1892 4.5 20:19:40 10° SW 20:23:11 34° WNW 20:26:43 10° N
Cosmos 2237 4.2 20:19:29 10° SSW 20:25:07 68° ESE 20:30:49 10° NE
Cosmos 1707 Rocket 3.7 20:22:46 10° NNW 20:27:14 76° W 20:31:41 10° S
IRAS Rocket 4.4 20:21:42 10° SSE 20:27:19 77° WSW 20:32:59 10° NNW
Lacrosse 5 rocket 1.8 20:23:17 10° W 20:27:49 54° SSW 20:32:16 10° ESE
SL-24 R/B - RUBIN 2 4.3 20:24:02 10° NW 20:29:30 81° SW 20:35:38 10° SE
MOS 1 Rocket 3.3 20:25:16 10° NNE 20:29:40 61° ESE 20:34:15 10° S
Cosmos 1743 Rocket 4.3 20:25:58 10° SSW 20:30:15 53° WNW 20:34:32 10° N
Helios 1A 3.1 20:27:52 10° SSE 20:32:01 70° ENE 20:36:12 10° NNW
Cosmos 44 4.1 20:30:44 10° WSW 20:35:47 59° NNW 20:40:34 10° NE
Cosmos 676 Rocket 4.2 20:30:44 10° S 20:35:48 54° ESE 20:40:58 10° NE
Meteor 1-10 Rocket 4.3 20:30:48 10° NNW 20:36:28 90° W 20:42:12 10° SSE
ERS-2 4.0 20:34:20 10° ESE 20:37:15 22° NE 20:40:10 10° N
Terra 2.7 20:33:22 10° S 20:37:57 45° W 20:42:32 10° NNW
Cosmos 1812 3.5 20:35:35 10° N 20:39:19 43° ENE 20:43:02 10° SE
Cosmos 1782 3.4 20:36:00 10° NNW 20:39:58 55° W 20:43:54 10° S
NOSS 3-2 (C) 4.3 20:33:34 10° WNW 20:40:17 65° NNE 20:48:02 10° E
BREEZE-M DEB (TANK) 4.5 20:38:08 10° SSW 20:41:53 26° SE 20:48:42 10° E
SL-16 R/B 4.2 20:40:39 10° ESE 20:42:04 11° E 20:43:29 10° ENE
COSMOS 2428 3.1 20:38:01 10° S 20:43:28 47° ESE 20:48:56 10° NE
Cosmos 44 Rocket 3.4 20:38:45 10° SW 20:43:52 90° NW 20:48:52 10° NE
NOSS 5 (C) 4.1 20:43:03 10° SW 20:46:22 71° SE 20:49:20 10° ENE
SL-4 R/B 3.4 20:42:37 10° SSW 20:46:25 23° SSE 20:50:08 10° ESE
Cosmos 1315 Rocket 4.2 20:43:54 10° N 20:47:25 30° ENE 20:50:58 10° SE
Cosmos 1400 Rocket 3.2 20:45:26 10° N 20:49:34 60° ENE 20:53:33 11° SSE
Cosmos 1954 Rocket 4.1 20:44:29 10° SSW 20:49:40 62° ESE 20:54:54 10° NE
Cosmos 1900 4.4 20:44:43 10° SW 20:49:54 81° SE 20:55:04 10° NE
Meteor 2-6 Rocket 4.4 20:44:49 10° NNW 20:50:14 70° WSW 20:55:42 10° S
Cosmos 1634 Rocket 4.2 20:45:16 10° SSW 20:51:32 77° WNW 20:57:47 10° NNE
Cosmos 1408 4.4 20:50:22 10° SW 20:53:44 31° WNW 20:57:08 10° N
Spot 4 3.9 20:48:57 10° SSE 20:53:45 83° WSW 20:58:34 10° NNW
Cosmos 2360 Rocket 2.4 20:49:01 10° SW 20:54:41 79° NW 21:00:22 10° NE
Cosmos 540 Rocket 3.9 20:49:52 10° NNW 20:54:57 60° NE 21:00:02 10° SE
Cosmos 1805 Rocket 3.8 20:50:41 10° SSW 20:55:03 72° WNW 20:59:26 10° N
Cosmos 1140 Rocket 3.5 20:49:54 10° SSW 20:55:05 79° ESE 21:00:21 10° NNE
Mayak -0.7 20:51:41 10° NNE 20:55:49 46° E 20:59:49 10° S
Cosmos 1862 3.8 20:52:22 10° SSE 20:56:09 46° E 21:00:00 10° NNE
Cosmos 2237 Rocket 3.2 20:52:57 10° SSE 20:57:41 29° ESE 21:02:27 10° NE
USA 229 DEB 3.7 20:52:01 10° SW 20:58:36 63° SE 21:05:33 10° ENE
USA 229 3.7 20:52:07 10° SW 20:58:43 63° SE 21:05:39 10° ENE
Thor Agena Rocket 4.2 20:54:28 10° NNE 20:59:25 55° WNW 21:04:20 10° SW
Cosmos 407 Rocket 3.8 20:54:23 10° SW 20:59:43 75° NW 21:05:07 10° NNE
Cosmos 1633 3.1 20:57:13 11° SSE 21:00:22 41° E 21:03:48 10° NNE
Cosmos 1980 Rocket 4.4 20:55:34 10° W 21:00:31 31° NNW 21:05:28 10° NE
Cosmos 1703 Rocket 4.1 20:56:24 10° N 21:00:45 51° ENE 21:05:01 11° SSE
ARGOS Delta rocket 3.8 20:56:50 11° SSE 21:01:10 77° ENE 21:05:52 10° NNW
Cosmos 1655 Rocket 4.3 20:55:04 10° NNW 21:01:19 69° W 21:07:29 10° S
NOSS 3-1 (A) 3.8 20:56:24 10° SSW 21:01:53 44° SE 21:08:13 10° ENE
ATLAS CENTAUR R/B 2.3 20:57:34 10° WNW 21:02:10 44° SW 21:06:12 12° SSE
CZ-2C R/B 3.9 20:57:15 10° N 21:02:12 42° WNW 21:07:04 10° SW
Cosmos 2242 Rocket 3.7 20:58:22 10° NNW 21:02:56 85° ENE 21:07:16 11° SSE
Helios 1B rocket 3.6 21:01:18 10° NNE 21:04:58 29° E 21:08:18 12° SSE
Cosmos 614 Rocket 4.2 21:00:57 10° SW 21:06:02 74° WNW 21:11:10 10° NNE
Cosmos 1190 Rocket 4.3 21:01:33 10° SW 21:06:45 73° NW 21:12:02 10° NNE
Lacrosse 4 Rocket 3.7 21:10:10 10° SE 21:11:44 12° ESE 21:13:17 10° E
GB3 4.5 21:08:40 10° SW 21:11:53 83° SE 21:14:49 10° ENE
SeaSat 1 3.8 21:08:03 10° NE 21:11:57 23° ESE 21:15:27 11° SSE
Okean 1-7 3.5 21:08:53 10° N 21:13:06 53° ENE 21:17:07 11° SSE
BREEZE-M DEB (TANK) 3.8 21:11:57 10° SSW 21:16:00 - SE 21:12:55 13° S
YAOGAN 11 4.1 21:09:28 12° SSE 21:13:29 85° WSW 21:17:53 10° NNW
USA 215 3.2 21:07:08 10° E 21:13:42 76° S 21:20:17 10° WSW
Cosmos 841 Rocket 3.5 21:10:28 10° NNW 21:15:39 87° WSW 21:20:34 11° SSE
Cosmos 1666 Rocket 3.8 21:11:11 10° SSW 21:15:41 78° WNW 21:20:11 10° NNE
COSMOS 2455 4.2 21:12:23 11° SSE 21:16:40 23° ESE 21:21:15 10° ENE
Cosmos 1633 Rocket 3.1 21:12:39 10° SSW 21:17:01 86° WNW 21:21:24 10° NNE
Cosmos 1933 Rocket 4.0 21:13:52 12° SSE 21:17:47 49° E 21:22:03 10° NNE
SL-19 R/B 3.8 21:14:43 10° NNE 21:18:12 83° WNW 21:21:15 10° SSW
NOSS 3-2 (A) 4.1 21:12:34 10° WNW 21:19:32 81° NNE 21:27:32 10° ESE
ALOS 2 2.6 21:16:47 12° SSE 21:20:50 84° ENE 21:25:16 10° NNW
Cosmos 1763 Rocket 3.8 21:17:04 10° NW 21:22:08 57° WSW 21:26:49 12° S
Cosmos 2297 3.7 21:16:37 10° NW 21:22:18 85° SW 21:27:55 10° SSE
Cosmos 2219 Rocket 2.2 21:18:32 10° SSW 21:24:12 75° ESE 21:29:53 10° NE
Cosmos 1825 4.5 21:21:24 10° WSW 21:24:27 23° WNW 21:27:32 10° N
Cosmos 1862 Rocket 4.1 21:20:15 10° NNW 21:24:28 50° W 21:28:33 11° S
Cosmos 1943 Rocket 3.0 21:19:49 10° NW 21:25:11 49° NE 21:30:33 10° ESE
Meteor 1-27 Rocket 4.1 21:19:22 10° NNW 21:25:12 68° W 21:30:48 11° S
GP-B 3.1 21:20:59 10° N 21:25:29 80° E 21:29:31 12° S
CENTAUR R/B 3.4 21:18:18 10° WNW 21:25:33 69° NNE 21:33:50 10° E
ATLAS 5 CENTAUR R/B 2.2 21:20:39 10° WNW 21:26:00 87° SSW 21:32:13 10° SE
Cosmos 2322 Rocket 3.7 21:20:56 10° WSW 21:26:20 41° NW 21:31:44 10° NE
Cosmos 2278 Rocket 3.1 21:22:03 10° NW 21:27:16 38° WSW 21:32:13 11° S
Cosmos 2333 4.3 21:23:51 10° SW 21:29:34 83° NW 21:35:16 10° NE
ATLAS 3B R/B 3.1 21:24:17 10° WNW 21:30:57 67° NNE 21:37:37 10° ESE
Meteor 1-29 4.0 21:28:09 10° NNE 21:31:18 32° E 21:33:49 14° SSE
SL-16 R/B 3.9 21:27:55 10° W 21:33:11 37° NNW 21:38:27 10° NE
Sich 1 4.0 21:30:12 10° SW 21:34:19 45° WNW 21:38:28 10° N
Cosmos 2333 Rocket 2.2 21:29:15 10° SSW 21:34:58 82° SE 21:40:41 10° NE
Cosmos 1470 Rocket 3.6 21:31:16 11° S 21:35:28 84° ESE 21:39:55 10° NNE
USA 238 DEB 3.8 21:38:35 10° WNW 21:45:40 82° SW 21:52:59 10° SE
USA 238 3.8 21:38:41 10° WNW 21:45:46 83° SW 21:53:05 10° SE
Cosmos 2322 4.3 21:40:22 10° SW 21:45:58 61° NW 21:51:38 10° NE
Gbstr 26 Del rocket 3.6 21:43:16 10° WSW 21:46:27 26° S 21:49:41 10° SE
SL-19 R/B 4.5 21:41:12 11° SSE 21:46:38 85° ENE 21:52:45 10° NNW
Okean 1 3.8 21:46:42 10° N 21:50:44 56° ENE 21:54:19 12° SSE
Cosmos 2369 Rocket 2.7 21:47:16 10° NW 21:52:59 64° NE 21:58:41 10° SE
ISS -2.6 21:54:38 10° WSW 21:57:22 24° S 22:00:07 10° SE
NOSS 2-3 (C) 4.2 21:53:36 10° SSW 21:58:09 51° SE 22:03:46 10° ENE
EP 3 3.8 21:57:38 10° SW 21:59:49 75° SE 22:02:24 10° ENE
Lacrosse 5 2.7 21:55:42 10° W 22:00:12 33° SW 22:04:14 12° SSE
Cosmos 1437 3.3 21:59:08 16° SSE 22:01:17 42° E 22:04:13 10° NNE
Cosmos 2098 Rocket 4.5 21:59:22 10° N 22:02:04 21° ENE 22:04:30 10° ESE
Lacrosse 5 rocket 2.9 22:02:47 10° W 22:06:26 23° SW 22:09:02 14° S
ERS-2 2.4 22:07:40 15° S 22:10:34 60° WSW 22:14:14 10° NNW
NOSS 3-1 (C) 3.6 22:04:50 10° WSW 22:10:52 86° NNW 22:18:02 10° ENE
Cosmos 1812 4.2 22:11:41 10° NNW 22:14:59 27° W 22:18:13 10° SSW
BREEZE-M DEB (TANK) 4.5 22:11:02 10° WSW 22:18:46 29° SSW 22:21:39 10° SE
Cosmos 1867 3.6 22:14:50 10° SW 22:20:18 72° SE 22:25:47 10° NE
DELTA 2 DEB (DPAF) 4.2 22:16:38 13° SSE 22:20:42 84° ENE 22:25:12 10° NNW
Cosmos 1733 Rocket 4.3 22:17:16 11° SSE 22:20:57 31° E 22:24:49 10° NNE
Cosmos 2263 4.5 22:17:17 10° NW 22:22:59 73° NE 22:28:37 10° SE
SL-16 R/B 3.7 22:17:39 10° ESE 22:23:20 40° NE 22:29:02 10° NNW
Cosmos 1315 Rocket 3.5 22:20:23 10° NNW 22:24:08 42° W 22:27:13 14° SSW
SL-16 R/B 2.7 22:20:08 13° S 22:24:50 46° ESE 22:30:14 10° NE
SL-4 R/B 2.9 22:21:04 10° WSW 22:25:23 34° S 22:29:33 10° ESE
Cosmos 1378 Rocket 4.5 22:22:36 10° N 22:26:46 43° ENE 22:30:53 10° SE
COSMOS 2428 3.4 22:22:05 10° WSW 22:27:44 56° NW 22:33:24 10° NE
Cosmos 1741 Rocket 4.3 22:22:46 10° SW 22:27:59 67° NW 22:33:13 10° NNE
Meteor 2-4 Rocket 4.0 22:22:36 10° NNW 22:28:28 69° ENE 22:34:06 10° SSE
Cosmos 1745 Rocket 4.1 22:22:38 10° NNW 22:29:01 89° ENE 22:34:50 12° S
NOSS 0 Rocket 4.0 22:23:46 10° SW 22:29:58 85° NW 22:36:11 10° NE
Mayak 0.3 22:27:30 10° N 22:31:19 33° WNW 22:35:07 10° SW
NOSS 3-2 (C) 3.9 22:24:36 10° WNW 22:31:41 80° SW 22:39:46 10° SE
Cosmos 1980 3.8 22:28:27 10° SW 22:34:10 83° NW 22:39:55 10° NE
Cosmos 1633 4.4 22:32:21 10° WSW 22:35:24 26° WNW 22:38:28 10° N
Cosmos 540 Rocket 4.4 22:31:47 10° NW 22:36:21 34° WSW 22:40:17 13° SSW
Cosmos 2360 Rocket 4.1 22:34:26 10° W 22:39:30 32° NNW 22:44:34 10° NE
ATLAS CENTAUR R/B 3.9 22:38:53 10° W 22:39:59 11° WSW 22:41:04 10° WSW
Helios 1B rocket 3.2 22:36:26 10° N 22:40:26 48° WNW 22:44:26 10° SW
Cosmos 2237 Rocket 2.3 22:35:39 10° SW 22:41:17 81° NW 22:46:58 10° NE
Okean 3 3.5 22:37:18 10° NNW 22:41:35 79° W 22:45:11 14° S
Cosmos 1656 Rocket 4.1 22:43:39 10° NW 22:49:22 68° NE 22:55:03 10° SE
Lacrosse 4 Rocket 1.8 22:45:44 13° SSW 22:49:31 52° SE 22:53:50 10° NE
USA 229 DEB 4.1 22:42:52 10° WSW 22:49:40 69° NNW 22:56:51 10° ENE
USA 229 4.1 22:42:59 10° WSW 22:49:46 70° NNW 22:56:57 10° ENE
SeaSat 1 2.5 22:45:06 10° NE 22:50:06 86° SE 22:55:04 10° SW
CZ-4 R/B 3.9 22:45:46 10° NNE 22:50:27 77° WNW 22:54:49 12° SSW
Okean 1-7 4.5 22:46:52 10° NNW 22:50:28 26° W 22:53:58 11° SW
Cosmos 1386 Rocket 4.5 22:45:18 10° NNW 22:51:24 76° W 22:56:55 12° S
NOSS 3-1 (A) 3.8 22:46:22 10° WSW 22:52:27 80° NNW 22:59:41 10° ENE
Meteor 1-19 Rocket 4.3 22:47:55 10° NNW 22:53:21 64° W 22:58:12 13° S
SL-08 ROCKET BODY 4.5 22:48:04 10° NNW 22:54:18 89° WSW 23:00:11 11° S
Cosmos 2221 Rocket 4.4 22:51:09 10° NNW 22:55:26 42° W 22:59:06 13° SSW
Cosmos 220 Rocket 4.1 22:51:23 10° NNW 22:55:53 83° ENE 23:00:19 10° SSE
PSLV R/B 3.9 22:52:15 10° NNE 22:56:29 54° ESE 23:00:03 14° S
USA 215 3.2 22:50:30 10° ESE 22:57:03 74° S 23:03:38 10° W
Cosmos 1486 Rocket 4.2 22:52:38 13° S 22:57:15 61° ESE 23:02:28 10° NE
Cosmos 1515 3.6 22:54:28 10° NNW 22:58:18 88° WSW 23:01:39 13° S
COSMOS 2455 2.9 22:55:46 10° SW 23:01:48 75° SE 23:07:51 10° NE
NOSS 2-3 (E) 4.1 22:58:24 10° WSW 23:03:16 87° NNW 23:09:27 10° ENE
Cosmos 1538 Rocket 4.4 22:58:26 10° NNW 23:03:45 68° NE 23:08:58 10° SE
Meteor 1-29 4.4 23:00:58 10° N 23:04:05 32° WNW 23:07:11 10° SW
Cosmos 1602 3.7 23:01:11 14° SSW 23:04:29 87° WNW 23:08:25 10° NNE
NOSS 2-3 (D) 4.1 23:01:16 10° WSW 23:06:07 87° NNW 23:12:16 10° ENE
H-2A R/B 2.7 23:03:21 10° SE 23:07:49 59° ENE 23:12:16 10° NNW
Cosmos 2219 Rocket 3.5 23:03:17 10° WSW 23:08:38 40° NNW 23:13:58 10° NE
Cosmos 1943 Rocket 2.4 23:03:43 10° NW 23:09:04 52° WSW 23:14:24 10° SSE
NOSS 3-2 (A) 4.2 23:03:27 10° WNW 23:10:22 50° SW 23:18:08 10° SSE
ATLAS 5 CENTAUR R/B 3.1 23:05:25 10° WNW 23:10:24 34° SW 23:15:59 10° S
Meteor 1-14 Rocket 4.4 23:05:53 12° SSW 23:11:20 79° WNW 23:17:21 10° NNE
CZ-4C R/B 4.1 23:09:32 13° S 23:13:13 48° W 23:17:34 10° NNW
Resurs 1-4 Rocket 3.7 23:10:27 10° NNE 23:14:55 27° E 23:19:21 10° SSE
Cosmos 968 Rocket 4.0 23:11:13 12° S 23:15:42 48° ESE 23:20:38 10° NE
CENTAUR R/B 3.1 23:09:04 10° WNW 23:16:38 72° SW 23:25:05 10° SE
Meteor 1-11 Rocket 4.3 23:11:38 10° S 23:16:59 51° E 23:22:33 10° NNE
Cosmos 2333 Rocket 3.6 23:14:31 10° W 23:19:49 38° NNW 23:25:07 10° NE
ATLAS 3B R/B 2.7 23:15:10 10° WNW 23:21:43 62° SW 23:28:20 10° SE
MOZ.5/SAFIR/RUBIN 5/SL-8 4.2 23:19:03 10° SSE 23:23:42 65° ENE 23:28:26 10° NNW
Cosmos 2285 Rocket 4.4 23:22:20 10° SW 23:28:37 65° NW 23:34:55 10° NNE
Cosmos 1354 Rocket 4.3 23:24:06 12° S 23:28:53 59° ESE 23:34:07 10° NE
Cosmos 2084 3.8 23:26:15 10° WNW 23:30:35 69° NNE 23:34:46 10° ESE
CZ-4B R/B 4.1 23:28:32 10° E 23:30:39 17° ENE 23:32:46 10° NNE
Gbstr 26 Del rocket 4.4 23:30:23 10° WSW 23:32:21 14° SSW 23:33:20 13° SSW
ISS -2.1 23:31:16 10° WSW 23:33:20 16° SSW 23:35:24 10° SSE
Cosmos 2369 Rocket 2.8 23:31:34 10° NW 23:36:52 39° WSW 23:42:06 10° S
CZ-4B R/B 3.5 23:33:14 10° NNE 23:38:22 79° ESE 23:43:05 11° SSW
CZ-2D R/B 3.2 23:36:09 10° NNE 23:41:15 39° E 23:46:20 10° SSE
Lacrosse 5 3.9 23:41:10 10° WSW 23:41:53 10° WSW 23:42:38 10° SW
Meteor 1-5 Rocket 4.5 23:36:39 11° S 23:42:28 77° ESE 23:48:27 10° NNE
Cosmos 1666 4.1 23:39:58 10° SSE 23:43:27 33° E 23:46:58 10° NNE
Cosmos 2098 Rocket 3.1 23:40:25 10° NNW 23:43:31 35° W 23:45:55 13° SSW
ATLAS 2AS CENTAUR R/B 3.6 23:37:21 11° SSW 23:44:43 46° SE 23:52:14 10° ENE
Cosmos 1975 Rocket 3.0 23:42:36 10° NNW 23:46:58 89° WSW 23:51:18 10° S
Cosmos 1536 3.0 23:43:17 11° S 23:47:09 68° E 23:51:11 10° NNE
CZ-4C R/B 3.8 23:43:41 10° SE 23:47:09 53° ENE 23:50:42 10° N
SAR-Lupe-4 3.8 23:47:41 10° S 23:51:10 54° WSW 23:54:44 10° NNW
Cosmos 2074 Rocket 4.1 23:45:17 10° NNW 23:51:37 86° ENE 23:57:55 10° SSE
Landsat 5 4.2 23:50:12 10° SE 23:54:32 57° ENE 23:58:45 10° N
